Volver al catálogo

STARLINK-31567

ActivoComunicacionesVLEO
NORAD 59199·PAYLOAD·🇺🇸 United States

Lanzado Mar 10, 2024 desde Cape Canaveral Space Force Station

Loading…

Próximos Pases (próximas 24 horas)

TLE

ActualizadoSource: CelesTrak SupGP

Época: Sep 15, 2026, 02:03 UTC

1 59199C 24045X   26258.08590278  .00049612  00000+0  17969-2 0  2583
2 59199  43.0000 102.7791 0001406 273.3459 273.1551 15.27554901    17

Sigue STARLINK-31567 en tiempo real con AllMySat

Download on the App Store